STARLINK-5677, 55463

Orbit data source: Space-Track

STARLINK-5677, 55463 is a payload satellite owned by SpaceX/Seattle (US) in LEO that was launched on Thu, 02 Feb 2023 UTC via an FALCON 9 launch vehicle from the Air Force Eastern Test Range (AFETR). Payload-class satellites include a variety of spacecraft equipped with specific instruments for various scientific and technological missions. These include communications satellites like Starlink; space stations such as the ISS; scientific satellites like the Hubble; Earth observation satellites from companies like Planet Labs, Umbra, and HawkEye 360; GPS; miniature CubeSats for education and research; and military/defense satellites.

Loading next visibility...
Identifier
55463, 2023-015Q
Orbit
LEO
Country
Flag of USUS
Related business
Manufacturer
SpaceX/Seattle
Mission
Operational Commercial Communications
Bus & Motor
STARLINK, Unknown motor
Mass
305 kg wet, ~290 kg dry
Launch date (UTC)
2023-02-02 (3 years ago)
Launch vehicle
FALCON 9
Launch site
Air Force Eastern Test Range (AFETR)
Object type
Payload
Rocket body
Debris
Shape & HBR
Box + 1 Pan, 10.1 m
Radar Cross Section
13.562 m², Large (>1 m²)

Expand to show TLE details & history
Last TLE update: 9 hours ago

TLE from 9 hours ago
0 STARLINK-5677
1 55463U 23015Q   25352.51929981 -.00000438  00000-0 -17336-4 0  9996
2 55463  43.0032  47.0674 0001232 279.7625  80.3078 15.02538295158540
Epoch: 2025-12-18T12:27Z
TLE epoch observation values (Epoch: 2025-12-18T12:27:47.503Z)
Latitude
-0.00004°
Longitude
132.74579°
Altitude
558.707 km
Speed
7.584 km/s
True Right ascension
03h 08m 16s
True Declination
0° 00' 00"
Sunlit
Object was in full shadow at epoch
Visualization orbit readout
Latitude
Unknown
Longitude
Unknown
Altitude
Unknown
Speed
Unknown
Apparent Right ascension
Unknown
Apparent Declination
Unknown
Sunlit
N/A
Visualization observer readout
Local Sidereal Time
20:08:39
Azimuth
Unknown
Elevation
Unknown
Doppler factor
Unknown
Orbital elements
Apogee altitude
561.851 km
Perigee altitude
560.141 km
Semi-major axis
6,939.133 km
Eccentricity
0.00012
Inclination
43.0032°
RAAN
47.0674°
Arg. of periapsis
279.7625°
True anomaly
80.32172°
Mean anomaly
80.3078°
Eccentric anomaly
80.31476°
Mean motion
3.75479 °/min
Orbital period
95.88 mins
BSTAR
-0.000017336
Loading maneuver chart data...
Computing Atmospheric mass density...
Loading historical data...
Loading historical data...
Loading historical data...
Loading historical data...
Loading historical data...
Loading historical data...
Loading historical data...

Documentation

Showing up to 5 results
|